SP3NYX-11 Weather Reports


time (UTC)temp
C
wind
direction
speed
KPH
gust
KPH
rain 1hr
cm
rain 24hr
cm
rain mn
cm
humidity
%
barometer
mb
20260905235802 11 258 20.9 29.0 0.00 16.31 0.10 79 1019.0
20260905235603 11 258 19.3 29.0 0.00 16.31 0.10 80 1019.0
20260905235403 11 258 16.1 29.0 0.10 16.31 0.10 79 1019.0
20260905235003 11 262 12.9 27.4 0.10 16.31 0.10 79 1019.0
20260905234803 11 259 19.3 27.4 0.10 16.31 0.10 79 1019.0
20260905234604 11 259 19.3 27.4 0.10 16.31 0.10 78 1019.0
20260905234402 11 261 12.9 27.4 0.10 16.31 0.10 78 1019.0
20260905234003 11 257 20.9 27.4 0.10 16.31 0.10 78 1019.0
20260905233804 11 258 16.1 25.7 0.10 16.31 0.10 78 1019.0
20260905233604 11 258 14.5 25.7 0.10 16.31 0.10 77 1019.0
20260905233404 11 260 14.5 25.7 0.10 16.31 0.10 76 1019.0
20260905233202 11 261 20.9 29.0 0.10 16.31 0.10 76 1019.0
20260905233003 11 265 14.5 29.0 0.10 16.31 0.10 75 1019.0
20260905232803 11 268 16.1 29.0 0.10 16.31 0.10 74 1019.0
20260905232602 11 270 16.1 30.6 0.10 16.31 0.10 74 1018.0
20260905232403 12 268 17.7 35.4 0.10 16.31 0.10 73 1018.0
20260905232203 12 270 19.3 35.4 0.10 16.31 0.10 74 1018.0
20260905232003 12 270 19.3 35.4 0.10 16.31 0.10 73 1018.0
20260905231803 12 271 20.9 35.4 0.10 16.31 0.10 73 1018.0
20260905231602 12 271 19.3 35.4 0.10 16.31 0.10 73 1018.0
20260905231403 12 272 24.1 38.6 0.10 16.31 0.10 73 1018.0
20260905231203 12 272 19.3 38.6 0.10 16.31 0.10 74 1018.0
20260905231003 12 271 24.1 38.6 0.10 16.31 0.10 74 1018.0
20260905230804 12 270 20.9 38.6 0.10 16.31 0.10 74 1018.0
20260905230602 12 270 29.0 38.6 0.10 16.31 0.10 74 1018.0
20260905230402 12 271 24.1 37.0 0.10 16.31 0.10 75 1018.0
20260905230203 11 270 20.9 38.6 0.10 16.31 0.10 75 1018.0
20260905230003 11 270 17.7 38.6 0.10 16.31 0.10 75 1018.0
20260905225802 11 271 20.9 38.6 0.10 16.31 0.10 76 1018.0
20260905225603 11 273 24.1 38.6 0.00 16.21 0.00 76 1018.0
20260905225203 11 272 22.5 38.6 0.00 16.21 0.00 77 1018.0
20260905225004 11 271 20.9 37.0 0.00 16.21 0.00 77 1018.0
20260905224802 11 270 17.7 37.0 0.00 16.21 0.00 78 1018.0
20260905224602 11 270 19.3 33.8 0.00 16.21 0.00 78 1018.0
20260905224404 11 270 20.9 33.8 0.00 16.21 0.00 78 1018.0
20260905224204 12 270 25.7 33.8 0.10 16.21 0.00 78 1018.0
20260905224003 12 270 25.7 33.8 0.10 16.21 0.00 78 1018.0
20260905223803 11 270 25.7 33.8 0.10 16.21 0.00 78 1018.0
20260905223603 11 268 20.9 33.8 0.10 16.21 0.00 78 1018.0
20260905223203 12 268 24.1 33.8 0.10 16.21 0.00 77 1018.0
20260905223002 11 267 19.3 33.8 0.10 16.21 0.00 77 1018.0
20260905222803 12 269 25.7 33.8 0.10 16.21 0.00 77 1018.0
20260905222603 11 271 19.3 33.8 0.10 16.21 0.00 77 1018.0
20260905222203 12 273 25.7 33.8 0.10 16.21 0.00 76 1018.0
20260905222003 12 273 19.3 33.8 0.10 16.21 0.00 75 1018.0
20260905221804 12 272 22.5 32.2 0.10 16.21 0.00 76 1018.0
20260905221602 12 270 24.1 38.6 0.10 16.21 0.00 76 1018.0
20260905221402 12 268 20.9 38.6 0.10 16.21 0.00 76 1018.0
20260905221003 12 269 22.5 38.6 0.10 16.21 0.00 75 1018.0
20260905220802 12 269 22.5 38.6 0.10 16.21 0.00 75 1018.0
20260905220603 12 270 24.1 33.8 0.10 16.21 0.00 75 1018.0
20260905220403 12 269 22.5 33.8 0.10 16.21 0.00 75 1018.0
20260905220202 12 269 19.3 33.8 0.10 16.21 0.00 75 1018.0
20260905215603 12 268 24.1 37.0 0.10 16.21 16.21 75 1018.0
20260905215403 12 270 22.5 37.0 0.10 16.21 16.21 75 1018.0
20260905215202 12 270 25.7 37.0 0.10 16.21 16.21 74 1018.0
20260905215003 12 272 20.9 37.0 0.10 16.21 16.21 75 1018.0
20260905214803 12 272 25.7 37.0 0.10 16.21 16.21 75 1018.0
20260905214603 12 273 20.9 37.0 0.10 16.21 16.21 75 1018.0
20260905214403 12 274 22.5 37.0 0.00 16.10 16.10 75 1018.0
20260905214203 12 273 27.4 40.2 0.00 16.10 16.10 75 1018.0
20260905214003 12 270 24.1 40.2 0.00 16.10 16.10 75 1018.0
20260905213804 12 270 27.4 40.2 0.00 16.10 16.10 75 1018.0
20260905213404 12 267 24.1 40.2 0.00 16.10 16.10 76 1018.0
20260905212803 12 266 22.5 38.6 0.00 16.10 16.10 77 1018.0
20260905212603 12 265 22.5 38.6 0.00 16.10 16.10 77 1018.0
20260905212402 12 266 24.1 38.6 0.00 16.10 16.10 77 1018.0
20260905212203 12 267 22.5 38.6 0.00 16.10 16.10 77 1018.0
20260905212003 12 266 24.1 37.0 0.00 16.10 16.10 78 1018.0
20260905211802 12 264 20.9 33.8 0.00 16.10 16.10 79 1018.0
20260905211604 12 263 14.5 35.4 0.10 16.10 16.10 79 1018.0
20260905211403 12 263 25.7 35.4 0.10 16.10 16.10 79 1018.0
20260905211002 12 261 22.5 35.4 0.10 16.10 16.10 79 1018.0
20260905210803 12 260 24.1 41.8 0.10 16.10 16.10 79 1018.0
20260905210603 12 260 29.0 41.8 0.10 16.10 16.10 79 1018.0
20260905210403 12 259 20.9 41.8 0.10 16.10 16.10 79 1018.0
20260905210204 12 259 17.7 41.8 0.10 16.10 16.10 78 1018.0
20260905205804 12 256 22.5 35.4 0.10 16.10 16.10 79 1018.0
20260905205603 12 254 19.3 33.8 0.10 16.10 16.10 79 1017.0
20260905205403 12 253 20.9 33.8 0.10 16.10 16.10 79 1017.0
20260905205204 12 253 22.5 33.8 0.10 16.10 16.10 79 1017.0
20260905205003 12 252 19.3 33.8 0.10 16.10 16.10 79 1017.0
20260905204603 12 254 17.7 32.2 0.10 16.10 16.10 79 1017.0
20260905204003 12 253 16.1 38.6 0.10 16.10 16.10 78 1017.0
20260905203804 12 254 17.7 38.6 0.10 16.10 16.10 78 1017.0
20260905203603 12 252 17.7 38.6 0.10 16.10 16.10 78 1017.0
20260905203403 12 248 29.0 38.6 0.10 16.10 16.10 77 1017.0
20260905203204 12 250 19.3 33.8 0.10 16.10 16.10 78 1017.0
20260905203004 12 252 20.9 35.4 0.10 16.10 16.10 78 1017.0
20260905202803 12 253 20.9 35.4 0.10 16.10 16.10 78 1017.0
20260905202603 12 255 25.7 35.4 0.10 16.10 16.10 78 1017.0
20260905202403 12 256 22.5 35.4 0.10 16.10 16.10 79 1017.0
20260905202002 12 251 20.9 33.8 0.10 16.10 16.10 79 1017.0
20260905201603 12 248 19.3 37.0 0.00 16.00 16.00 79 1017.0
20260905201402 12 249 19.3 37.0 0.00 16.00 16.00 79 1017.0
20260905201203 12 246 20.9 37.0 0.00 16.00 16.00 79 1017.0
20260905201003 12 247 20.9 37.0 0.00 16.00 16.00 79 1017.0
20260905200804 12 247 22.5 35.4 0.00 16.00 16.00 79 1017.0
20260905200603 12 245 22.5 30.6 0.00 16.00 16.00 79 1017.0
20260905200004 12 249 16.1 27.4 0.00 16.00 16.00 79 1017.0
20260905195804 12 248 14.5 30.6 0.00 16.00 16.00 79 1017.0
20260905195404 12 248 17.7 33.8 0.00 16.00 16.00 78 1017.0
20260905195004 12 249 12.9 33.8 0.00 16.00 16.00 77 1017.0
20260905194803 12 251 20.9 33.8 0.00 16.00 16.00 77 1017.0
20260905194603 12 250 16.1 33.8 0.00 16.00 16.00 76 1017.0
20260905194402 12 252 20.9 30.6 0.00 16.00 16.00 76 1017.0
20260905194204 12 252 22.5 30.6 0.00 16.00 16.00 76 1017.0
20260905194003 12 252 20.9 33.8 0.00 16.00 16.00 76 1017.0
20260905193802 12 249 17.7 33.8 0.00 16.00 16.00 76 1017.0
20260905193603 12 250 22.5 33.8 0.00 16.00 16.00 76 1017.0
20260905193403 12 248 24.1 33.8 0.00 16.00 16.00 76 1017.0
20260905193202 12 248 20.9 33.8 0.00 16.00 16.00 76 1017.0
20260905193002 12 248 20.9 30.6 0.00 16.00 16.00 77 1017.0
20260905192603 12 248 20.9 29.0 0.00 16.00 16.00 76 1017.0
20260905192404 12 247 19.3 29.0 0.00 16.00 16.00 76 1017.0
20260905192205 12 248 20.9 30.6 0.00 16.00 16.00 77 1017.0
20260905192002 12 250 19.3 32.2 0.00 16.00 16.00 76 1017.0
20260905191604 12 255 20.9 32.2 0.00 16.00 16.00 76 1017.0
20260905191202 12 255 20.9 32.2 0.00 16.00 16.00 77 1017.0
20260905191004 12 255 17.7 32.2 0.00 16.00 16.00 77 1017.0
20260905190404 12 251 20.9 30.6 0.00 16.00 16.00 77 1017.0
20260905190203 12 250 22.5 30.6 0.00 16.00 16.00 77 1017.0
20260905190002 12 249 16.1 27.4 0.00 16.00 16.00 78 1017.0
20260905185804 12 250 12.9 27.4 0.00 16.00 16.00 78 1017.0
20260905185603 12 250 12.9 27.4 0.00 16.00 16.00 77 1017.0
20260905185403 12 249 17.7 29.0 0.00 16.00 16.00 77 1017.0
20260905185003 12 248 12.9 33.8 0.00 16.00 16.00 77 1017.0
20260905184802 12 247 20.9 33.8 0.00 16.00 16.00 76 1017.0
20260905184607 12 246 20.9 33.8 0.00 16.00 16.00 76 1017.0
20260905184403 12 247 16.1 33.8 0.00 16.00 16.00 77 1017.0
20260905184204 12 247 22.5 33.8 0.00 16.00 16.00 77 1016.0
20260905184003 12 246 19.3 33.8 0.00 16.00 16.00 77 1016.0
20260905183802 12 243 19.3 33.8 0.00 16.10 16.00 77 1016.0
20260905183603 12 241 24.1 33.8 0.00 16.10 16.00 77 1016.0
20260905183403 12 238 17.7 30.6 0.00 16.21 16.00 77 1016.0
20260905183202 12 233 19.3 30.6 0.00 16.21 16.00 77 1016.0
20260905183003 12 230 16.1 30.6 0.00 16.21 16.00 77 1016.0
20260905182803 12 234 20.9 30.6 0.00 16.21 16.00 76 1016.0
20260905182604 12 233 16.1 27.4 0.00 16.21 16.00 75 1016.0
20260905182202 12 242 12.9 27.4 0.00 16.21 16.00 73 1016.0
20260905182004 13 246 17.7 27.4 0.00 16.21 16.00 73 1016.0
20260905181804 13 247 12.9 33.8 0.00 16.21 16.00 72 1016.0
20260905181405 13 247 14.5 33.8 0.00 16.31 16.00 72 1016.0
20260905181203 13 249 20.9 33.8 0.00 16.31 16.00 72 1016.0
20260905181002 13 251 24.1 33.8 0.00 16.31 16.00 72 1016.0
20260905180803 12 252 20.9 32.2 0.00 16.31 16.00 73 1016.0
20260905180603 12 253 17.7 30.6 0.00 16.31 16.00 73 1016.0
20260905180405 12 255 17.7 30.6 0.00 16.31 16.00 73 1016.0
20260905180004 13 256 22.5 32.2 0.00 16.41 16.00 72 1016.0
20260905175803 13 258 16.1 32.2 0.00 16.41 16.00 72 1016.0
20260905174804 13 273 25.7 30.6 0.10 16.41 16.00 72 1016.0
20260905174603 12 270 19.3 30.6 0.10 16.41 16.00 72 1016.0
20260905174404 13 270 22.5 30.6 0.10 16.41 16.00 72 1016.0
20260905174018 13 269 19.3 33.8 0.10 16.51 16.00 72 1016.0
20260905173602 13 270 19.3 33.8 0.10 16.51 16.00 72 1016.0
20260905173403 13 270 19.3 33.8 0.10 16.51 16.00 71 1016.0
20260905173203 13 270 24.1 33.8 0.10 16.51 16.00 71 1016.0
20260905173002 13 271 20.9 35.4 0.10 16.51 16.00 71 1016.0
20260905172603 13 273 24.1 38.6 0.10 16.51 16.00 72 1016.0
20260905172203 13 275 30.6 38.6 0.10 16.51 16.00 72 1016.0
20260905172004 13 276 27.4 38.6 0.10 16.51 16.00 72 1016.0
20260905171803 12 277 27.4 38.6 0.10 16.51 16.00 73 1016.0
20260905171603 12 276 20.9 37.0 0.30 16.51 16.00 74 1016.0
20260905171403 12 277 24.1 37.0 0.30 16.51 16.00 73 1016.0
20260905171202 12 275 24.1 33.8 0.30 16.51 16.00 73 1016.0
20260905170603 12 274 25.7 38.6 4.50 16.51 16.00 74 1016.0
20260905170402 12 275 17.7 38.6 6.10 16.51 16.00 74 1016.0
20260905170203 12 277 24.1 38.6 6.50 16.51 16.00 74 1016.0
20260905170002 12 277 29.0 38.6 7.59 16.51 16.00 75 1016.0
20260905165802 12 280 24.1 41.8 7.80 16.51 16.00 75 1016.0
20260905165603 12 279 22.5 41.8 7.80 16.51 16.00 75 1016.0
20260905165403 12 279 16.1 41.8 7.90 16.51 16.00 76 1016.0
20260905165203 12 281 29.0 41.8 8.00 16.51 16.00 74 1016.0
20260905164803 12 284 20.9 41.8 7.90 16.41 15.90 77 1016.0
20260905164402 12 290 19.3 41.8 7.90 16.51 15.90 77 1016.0
20260905164203 12 294 22.5 41.8 7.90 16.51 15.90 77 1016.0
20260905163803 12 301 27.4 40.2 7.90 17.20 15.90 78 1016.0
20260905163603 12 302 22.5 40.2 8.00 17.20 15.90 78 1016.0
20260905163405 12 302 27.4 40.2 8.00 17.20 15.90 78 1016.0
20260905163003 12 295 22.5 40.2 8.00 17.20 15.90 80 1016.0
20260905162603 12 289 24.1 48.3 8.31 17.20 15.90 79 1016.0
20260905162404 12 285 24.1 48.3 8.61 17.20 15.90 78 1016.0
20260905162202 12 281 19.3 56.3 8.61 17.20 15.90 78 1016.0
20260905162002 12 278 30.6 56.3 8.61 17.20 15.90 76 1016.0
20260905161603 12 271 33.8 64.4 8.41 16.99 15.70 73 1016.0
20260905161403 13 270 37.0 70.8 8.41 16.99 15.70 71 1016.0
20260905161202 13 271 43.5 70.8 8.41 16.99 15.70 70 1014.0
20260905161003 13 276 33.8 72.4 6.30 14.81 13.49 69 1014.0
20260905160602 13 282 46.7 72.4 3.81 12.29 11.00 61 1014.0
20260905160403 14 288 40.2 72.4 2.69 11.20 9.91 54 1014.0
20260905160003 17 277 35.4 54.7 1.40 9.70 8.41 39 1014.0
20260905155802 17 273 20.9 54.7 1.19 9.50 8.20 36 1014.0
20260905155603 17 269 24.1 54.7 1.19 9.50 8.20 36 1014.0
20260905155403 17 263 27.4 54.7 1.09 9.40 8.10 35 1014.0
20260905155203 18 261 20.9 37.0 0.99 9.30 8.00 35 1014.0
20260905155002 18 262 20.9 38.6 0.99 9.30 8.00 35 1014.0
20260905154804 18 263 16.1 45.1 0.99 9.30 8.00 35 1014.0
20260905154603 18 263 19.3 45.1 0.99 9.30 8.00 35 1014.0
20260905154402 18 264 16.1 45.1 0.99 9.30 8.00 35 1014.0
20260905154203 18 263 27.4 45.1 0.99 9.30 8.00 35 1014.0
20260905154004 18 262 30.6 45.1 0.99 9.30 8.00 35 1014.0
20260905153805 18 262 30.6 43.5 0.99 9.30 8.00 35 1014.0
20260905153615 18 264 22.5 53.1 0.89 9.19 7.90 35 1014.0
20260905153403 18 264 24.1 53.1 0.89 9.19 7.90 35 1014.0
20260905153203 18 260 22.5 53.1 0.89 9.19 7.90 35 1014.0
20260905152802 18 258 35.4 53.1 0.89 9.19 7.90 34 1014.0
20260905152602 19 251 25.7 48.3 0.30 8.61 7.29 34 1014.0
20260905152404 19 249 17.7 48.3 0.30 8.61 7.29 36 1014.0
20260905152204 18 251 30.6 48.3 0.30 8.61 7.29 37 1014.0
20260905152003 18 249 27.4 48.3 0.30 8.61 7.29 37 1014.0
20260905151804 17 247 20.9 40.2 0.30 8.61 7.29 38 1014.0
20260905150402 18 246 22.5 38.6 0.00 8.41 7.01 35 1014.0
20260905150003 18 249 22.5 33.8 0.00 8.41 7.01 36 1014.0
20260905145204 18 245 17.7 30.6 1.30 8.41 7.01 37 1014.0
20260905144603 18 257 9.7 33.8 1.91 8.41 7.01 37 1014.0
20260905144203 18 261 25.7 33.8 2.01 8.41 7.01 38 1014.0
20260905143203 18 255 19.3 35.4 2.90 8.41 7.01 37 1014.0
20260905142803 20 253 12.9 33.8 2.90 8.41 7.01 36 1014.0
20260905141803 18 264 22.5 41.8 2.90 8.41 7.01 39 1014.0
20260905141203 18 264 19.3 41.8 3.00 8.41 7.01 41 1014.0
20260905140403 18 270 17.7 56.3 3.00 8.41 7.01 40 1014.0
20260905134803 17 261 30.6 48.3 1.30 6.50 5.11 42 1014.0
20260905133403 17 239 22.5 43.5 0.30 5.51 4.09 39 1014.0
20260905133202 17 241 24.1 37.0 0.30 5.51 4.09 40 1014.0
20260905132603 18 241 22.5 38.6 0.30 5.51 4.09 39 1014.0
20260905131003 19 246 20.9 33.8 0.61 5.41 3.99 35 1014.0
20260905130603 20 255 16.1 37.0 0.61 5.41 3.99 35 1014.0
20260905125603 17 264 27.4 41.8 0.61 5.41 3.99 39 1014.0
20260905125205 17 253 17.7 33.8 0.41 5.21 3.81 38 1014.0
20260905124803 17 250 22.5 40.2 0.41 5.21 3.81 37 1014.0
20260905124205 18 247 20.9 46.7 0.79 5.21 3.81 37 1013.0
20260905123003 18 240 27.4 41.8 0.89 5.21 3.81 34 1013.0
20260905122804 18 234 29.0 38.6 0.89 5.21 3.81 33 1013.0
20260905122603 18 239 19.3 37.0 0.89 5.21 3.81 33 1014.0
20260905122403 19 238 17.7 37.0 1.09 5.21 3.81 34 1014.0
20260905122003 20 233 20.9 43.5 1.09 5.21 3.81 32 1014.0
20260905121802 20 233 19.3 43.5 1.09 5.21 3.81 33 1014.0
20260905121602 19 237 20.9 43.5 1.09 5.21 3.81 33 1014.0
20260905121004 20 257 16.1 35.4 0.71 4.80 3.40 34 1014.0
20260905120003 19 242 27.4 35.4 0.79 4.80 3.40 34 1014.0
20260905115603 18 243 17.7 35.4 0.79 4.80 3.40 33 1014.0
20260905115402 18 240 25.7 35.4 0.79 4.80 3.40 33 1014.0
20260905114804 20 238 24.1 53.1 1.19 4.80 3.40 33 1014.0
20260905113803 19 243 24.1 45.1 0.71 4.29 2.90 33 1014.0
20260905113404 18 241 19.3 45.1 0.71 4.29 2.90 34 1014.0
20260905113203 18 244 30.6 45.1 0.71 4.29 2.90 34 1014.0
20260905113003 19 243 25.7 45.1 0.71 4.29 2.90 33 1014.0
20260905112603 19 243 29.0 45.1 0.71 4.29 2.90 33 1014.0
20260905112403 20 244 24.1 45.1 0.51 4.09 2.69 33 1014.0
20260905112203 20 244 16.1 38.6 0.51 4.09 2.69 34 1014.0
20260905112003 19 244 16.1 38.6 0.51 4.09 2.69 34 1014.0
20260905111803 19 245 19.3 41.8 0.51 4.09 2.69 35 1014.0
20260905111603 19 247 25.7 45.1 0.51 4.09 2.69 35 1014.0
20260905111403 19 248 19.3 45.1 0.51 4.09 2.69 35 1014.0
20260905111205 19 248 22.5 45.1 0.51 4.09 2.69 35 1014.0
20260905111002 18 250 30.6 45.1 0.51 4.09 2.69 35 1014.0
20260905110803 18 252 29.0 45.1 0.41 3.99 2.59 35 1014.0
20260905110603 20 249 14.5 41.8 0.41 3.99 2.59 35 1014.0
20260905110203 18 242 30.6 41.8 0.41 3.99 2.59 37 1014.0
20260905110004 18 237 25.7 37.0 0.41 3.99 2.59 36 1014.0
20260905105803 20 236 22.5 48.3 0.41 3.99 2.59 36 1014.0
20260905105603 18 235 24.1 48.3 0.41 3.99 2.59 37 1014.0
20260905105402 18 236 27.4 48.3 0.41 3.99 2.59 36 1014.0
20260905105003 19 238 24.1 48.3 0.20 3.81 2.39 36 1014.0
20260905104603 19 234 22.5 35.4 0.00 3.61 2.21 36 1014.0
20260905104203 19 235 22.5 33.8 0.00 3.61 2.21 36 1014.0
20260905103803 19 243 25.7 33.8 0.00 3.61 2.21 37 1014.0
20260905103609 18 251 24.1 38.6 0.00 3.61 2.21 38 1014.0
20260905103403 19 258 22.5 40.2 0.00 3.61 2.21 38 1014.0
20260905103003 18 269 24.1 40.2 0.00 3.61 2.21 41 1014.0
20260905102803 17 268 24.1 40.2 0.00 3.61 2.21 42 1014.0
20260905102603 17 271 20.9 40.2 0.00 3.61 2.21 42 1014.0
20260905101003 18 246 20.9 33.8 0.00 3.61 2.21 43 1014.0
20260905100603 18 254 17.7 38.6 0.00 3.61 2.21 43 1014.0
20260905100403 18 252 14.5 38.6 0.30 3.61 2.21 42 1014.0
20260905100203 18 248 20.9 38.6 0.30 3.61 2.21 43 1014.0
20260905095802 18 242 20.9 33.8 0.30 3.61 2.21 42 1014.0
20260905095603 17 239 19.3 33.8 0.30 3.61 2.21 43 1014.0
20260905095403 17 239 17.7 29.0 0.30 3.61 2.21 44 1014.0
20260905095204 17 246 19.3 30.6 0.30 3.61 2.21 44 1014.0
20260905095003 17 252 17.7 41.8 0.30 3.61 2.21 44 1014.0
20260905094803 17 255 16.1 41.8 0.30 3.61 2.21 45 1014.0
20260905094603 17 256 19.3 41.8 0.30 3.61 2.21 45 1014.0
20260905094402 16 257 24.1 41.8 0.30 3.61 2.21 44 1014.0
20260905094202 17 254 24.1 41.8 0.30 3.61 2.21 45 1014.0
20260905094003 16 250 20.9 37.0 0.30 3.61 2.21 45 1014.0
20260905093803 17 246 24.1 37.0 0.30 3.61 2.21 46 1014.0
20260905093604 17 245 25.7 37.0 0.30 3.61 2.21 45 1014.0
20260905093403 17 242 25.7 37.0 0.30 3.61 2.21 45 1014.0
20260905093203 17 240 16.1 30.6 0.30 3.61 2.21 46 1014.0
20260905093003 17 249 16.1 35.4 0.30 3.61 2.21 45 1014.0
20260905092802 17 259 16.1 35.4 0.30 3.61 2.21 46 1014.0
20260905092403 17 260 12.9 35.4 0.30 3.61 2.21 45 1014.0
20260905092204 17 260 19.3 38.6 0.30 3.61 2.21 47 1014.0
20260905091803 16 258 24.1 41.8 0.30 3.61 2.21 45 1014.0
20260905091604 16 258 22.5 41.8 0.30 3.61 2.21 47 1014.0
20260905091403 16 258 24.1 43.5 0.30 3.61 2.21 46 1014.0
20260905091202 16 261 30.6 43.5 0.30 3.61 2.21 47 1014.0
20260905091003 16 258 27.4 43.5 0.30 3.61 2.21 47 1014.0
20260905090803 16 258 24.1 43.5 0.30 3.61 2.21 48 1014.0
20260905090604 16 260 25.7 43.5 0.30 3.61 2.21 48 1014.0
20260905090204 16 260 20.9 35.4 0.00 3.30 1.91 48 1014.0
20260905085803 17 258 20.9 29.0 0.00 3.30 1.91 49 1014.0
20260905085403 16 256 16.1 37.0 0.10 3.30 1.91 49 1014.0
20260905085206 16 257 20.9 37.0 0.30 3.30 1.91 50 1014.0
20260905085004 16 256 16.1 37.0 0.41 3.30 1.91 50 1014.0
20260905084802 16 253 19.3 37.0 0.41 3.30 1.91 52 1014.0
20260905084603 16 251 20.9 37.0 0.41 3.30 1.91 51 1014.0
20260905084403 16 253 17.7 32.2 0.41 3.30 1.91 51 1014.0
20260905084203 16 248 17.7 32.2 0.41 3.30 1.91 49 1014.0
20260905084009 17 252 17.7 30.6 0.41 3.30 1.91 48 1014.0
20260905083802 16 256 14.5 30.6 0.41 3.30 1.91 52 1014.0
20260905083403 16 258 14.5 32.2 0.41 3.30 1.91 52 1014.0
20260905083003 16 256 19.3 32.2 0.41 3.30 1.91 55 1014.0
20260905082603 16 254 17.7 29.0 0.41 3.30 1.91 54 1014.0
20260905082403 16 250 16.1 29.0 0.41 3.30 1.91 54 1014.0
20260905082203 16 253 19.3 29.0 0.41 3.30 1.91 54 1014.0
20260905081803 17 254 14.5 38.6 0.41 3.30 1.91 51 1014.0
20260905081604 17 261 17.7 38.6 0.41 3.30 1.91 50 1014.0
20260905081403 17 265 19.3 38.6 0.41 3.30 1.91 52 1014.0
20260905081205 16 266 14.5 38.6 0.41 3.30 1.91 54 1013.0
20260905081004 16 265 16.1 33.8 0.41 3.30 1.91 56 1013.0
20260905080803 16 260 17.7 30.6 0.41 3.30 1.91 56 1013.0
20260905080603 16 260 16.1 33.8 0.41 3.30 1.91 56 1013.0
20260905080204 16 256 16.1 46.7 0.41 3.30 1.91 57 1013.0
20260905080003 16 256 20.9 46.7 0.41 3.30 1.91 57 1013.0
20260905075803 15 257 25.7 46.7 0.41 3.30 1.91 57 1013.0
20260905075607 15 255 25.7 46.7 0.30 3.20 1.80 56 1013.0
20260905075202 16 253 19.3 35.4 0.00 2.90 1.50 56 1013.0
20260905075003 16 252 20.9 35.4 0.00 2.90 1.50 57 1013.0
20260905074803 16 256 22.5 35.4 0.00 2.90 1.50 57 1013.0
20260905074604 16 256 20.9 35.4 0.00 2.90 1.50 56 1013.0
20260905074203 16 263 14.5 35.4 0.00 2.90 1.50 58 1013.0
20260905074003 15 261 27.4 35.4 0.00 2.90 1.50 59 1013.0
20260905073803 16 258 20.9 37.0 0.00 2.90 1.50 58 1013.0
20260905073203 15 255 24.1 37.0 0.00 2.90 1.50 56 1013.0
20260905073003 16 259 22.5 37.0 0.00 2.90 1.50 58 1013.0
20260905072603 15 262 19.3 33.8 0.00 2.90 1.50 62 1013.0
20260905072202 15 256 22.5 37.0 0.00 2.90 1.50 62 1013.0
20260905072003 15 253 24.1 37.0 0.00 2.90 1.50 62 1013.0
20260905071808 15 255 22.5 37.0 0.00 2.90 1.50 63 1013.0
20260905071605 15 256 17.7 37.0 0.00 2.90 1.50 64 1013.0
20260905071203 15 261 12.9 32.2 0.00 2.90 1.50 65 1013.0
20260905071003 15 263 19.3 32.2 0.10 2.90 1.50 65 1013.0
20260905070802 15 262 20.9 35.4 0.10 2.90 1.50 65 1013.0
20260905070603 15 261 20.9 35.4 0.10 2.90 1.50 64 1013.0
20260905070403 15 260 19.3 35.4 0.10 2.90 1.50 64 1013.0
20260905070202 15 262 16.1 35.4 0.10 2.90 1.50 65 1013.0
20260905070004 14 265 27.4 37.0 0.10 2.90 1.50 65 1013.0
20260905065602 15 266 14.5 37.0 0.10 2.90 1.50 66 1013.0
20260905065404 14 264 19.3 37.0 0.10 2.90 1.50 68 1013.0
20260905064804 14 255 16.1 33.8 0.10 2.90 1.50 67 1013.0
20260905064603 14 254 17.7 33.8 0.10 2.90 1.50 68 1013.0
20260905064203 14 250 17.7 33.8 0.10 2.90 1.50 68 1013.0
20260905064003 15 249 14.5 30.6 0.10 2.90 1.50 68 1013.0
20260905063803 14 252 16.1 30.6 0.10 2.90 1.50 70 1013.0
20260905063403 14 250 20.9 33.8 0.10 2.90 1.50 70 1013.0
20260905063202 14 252 17.7 33.8 0.10 2.90 1.50 69 1013.0
20260905063002 14 253 14.5 33.8 0.10 2.90 1.50 71 1013.0
20260905062803 13 252 17.7 33.8 0.10 2.90 1.50 71 1013.0
20260905062603 13 250 22.5 33.8 0.10 2.90 1.50 71 1013.0
20260905062403 13 253 20.9 33.8 0.10 2.90 1.50 71 1013.0
20260905062202 13 253 19.3 33.8 0.10 2.90 1.50 71 1013.0
20260905061803 13 250 25.7 41.8 0.10 2.90 1.50 71 1013.0
20260905061203 13 254 20.9 41.8 0.10 2.90 1.50 72 1013.0
20260905061004 13 255 16.1 40.2 0.00 2.79 1.40 72 1013.0
20260905060803 13 255 29.0 40.2 0.00 2.79 1.40 72 1013.0
20260905060203 13 248 20.9 30.6 0.00 2.79 1.40 73 1013.0
20260905060003 13 248 19.3 30.6 0.00 2.79 1.40 73 1013.0
20260905055804 13 249 19.3 30.6 0.00 2.79 1.40 73 1013.0
20260905055604 13 249 20.9 30.6 0.00 2.79 1.40 73 1012.0
20260905055404 13 250 16.1 30.6 0.00 2.79 1.40 74 1012.0
20260905055003 13 248 20.9 41.8 0.00 2.79 1.40 74 1012.0
20260905054602 13 247 22.5 41.8 0.00 2.79 1.40 74 1012.0
20260905054403 13 248 25.7 41.8 0.00 2.79 1.40 74 1012.0
20260905054203 13 247 20.9 30.6 0.00 2.79 1.40 74 1012.0
20260905053603 13 245 14.5 30.6 0.00 2.79 1.40 74 1012.0
20260905053203 13 247 14.5 29.0 0.00 2.79 1.40 74 1012.0
20260905052203 13 249 20.9 33.8 0.00 2.79 1.40 75 1012.0
20260905052004 13 247 14.5 32.2 0.00 2.79 1.40 75 1012.0
20260905051803 13 248 14.5 35.4 0.00 2.79 1.40 76 1012.0
20260905051605 13 248 20.9 35.4 0.00 2.79 1.40 75 1012.0
20260905051203 13 251 14.5 35.4 0.00 2.79 1.40 76 1012.0
20260905051003 13 253 27.4 35.4 0.00 2.79 1.40 76 1012.0
20260905050803 13 251 17.7 33.8 0.00 2.79 1.40 76 1012.0
20260905050603 13 250 17.7 33.8 0.00 2.79 1.40 76 1012.0
20260905050403 13 248 11.3 33.8 0.00 2.79 1.40 76 1012.0
20260905050003 13 245 22.5 30.6 0.00 2.79 1.40 76 1012.0
20260905045803 13 244 19.3 27.4 0.00 2.79 1.40 77 1012.0
20260905045603 13 245 19.3 27.4 0.00 2.79 1.40 78 1012.0
20260905045404 13 246 16.1 38.6 0.00 2.79 1.40 78 1012.0
20260905045003 13 245 19.3 38.6 0.00 2.79 1.40 77 1012.0
20260905044804 13 247 17.7 38.6 0.00 2.79 1.40 78 1012.0
20260905044604 13 246 20.9 38.6 0.00 2.79 1.40 77 1012.0
20260905044403 13 244 12.9 30.6 0.00 2.79 1.40 78 1012.0
20260905044203 13 243 22.5 30.6 0.00 2.79 1.40 77 1012.0
20260905044003 13 245 17.7 30.6 0.00 2.79 1.40 78 1012.0
20260905043803 13 245 11.3 30.6 0.00 2.79 1.40 78 1012.0
20260905043602 13 245 22.5 30.6 0.00 2.79 1.40 78 1012.0
20260905043403 13 245 17.7 27.4 0.00 2.79 1.40 78 1012.0
20260905043204 13 247 17.7 33.8 0.00 2.79 1.40 78 1012.0
20260905043003 13 250 19.3 33.8 0.00 2.79 1.40 78 1012.0
20260905042803 13 250 12.9 33.8 0.00 2.79 1.40 79 1012.0
20260905042403 13 251 16.1 33.8 0.10 2.79 1.40 78 1011.0
20260905041803 13 241 16.1 32.2 0.10 2.79 1.40 79 1011.0
20260905041604 13 242 12.9 32.2 0.10 2.79 1.40 79 1011.0
20260905041403 13 242 17.7 32.2 0.10 2.79 1.40 78 1011.0
20260905041203 13 244 16.1 27.4 0.10 2.79 1.40 79 1011.0
20260905041005 13 245 17.7 30.6 0.10 2.79 1.40 79 1011.0
20260905040803 13 244 12.9 30.6 0.10 2.79 1.40 79 1011.0
20260905040402 13 243 19.3 30.6 0.10 2.79 1.40 78 1011.0
20260905040203 13 243 20.9 30.6 0.10 2.79 1.40 78 1011.0
20260905040003 13 244 17.7 30.6 0.10 2.79 1.40 79 1011.0
20260905035403 13 241 17.7 35.4 0.10 2.79 1.40 79 1011.0
20260905035204 13 244 17.7 35.4 0.10 2.79 1.40 78 1011.0
20260905035003 13 246 19.3 35.4 0.10 2.79 1.40 78 1011.0
20260905034805 13 250 17.7 35.4 0.10 2.79 1.40 77 1011.0
20260905034403 13 256 19.3 35.4 0.20 2.79 1.40 77 1011.0
20260905034204 13 256 19.3 35.4 0.20 2.79 1.40 76 1011.0
20260905034003 13 257 20.9 35.4 0.20 2.79 1.40 76 1011.0
20260905033803 13 258 20.9 35.4 0.20 2.79 1.40 76 1011.0
20260905033403 13 263 20.9 38.6 0.30 2.79 1.40 76 1011.0
20260905033203 13 261 25.7 38.6 0.30 2.79 1.40 76 1011.0
20260905033003 13 260 19.3 38.6 0.30 2.79 1.40 76 1011.0
20260905032804 13 257 20.9 38.6 0.30 2.79 1.40 75 1011.0
20260905032602 13 254 24.1 30.6 0.20 2.69 1.30 76 1011.0
20260905032403 13 254 20.9 38.6 0.20 2.69 1.30 76 1011.0
20260905032203 13 257 17.7 38.6 0.20 2.69 1.30 76 1011.0
20260905032003 13 258 22.5 38.6 0.20 2.69 1.30 76 1011.0
20260905031803 13 259 17.7 38.6 0.20 2.69 1.30 76 1011.0
20260905031603 13 263 17.7 38.6 0.20 2.69 1.30 75 1011.0
20260905031403 13 266 24.1 35.4 0.20 2.69 1.30 75 1011.0
20260905031203 13 265 17.7 37.0 0.20 2.69 1.30 76 1011.0
20260905031003 13 266 12.9 37.0 0.20 2.69 1.30 76 1011.0
20260905030804 14 266 19.3 37.0 0.20 2.69 1.30 75 1011.0
20260905030604 14 267 27.4 37.0 0.20 2.69 1.30 75 1011.0
20260905030203 14 264 20.9 38.6 0.20 2.69 1.30 76 1011.0
20260905030003 14 266 20.9 38.6 0.20 2.69 1.30 76 1011.0
20260905025803 14 267 20.9 38.6 0.20 2.69 1.30 76 1011.0
20260905025603 14 266 19.3 40.2 0.20 2.69 1.30 76 1011.0
20260905025403 14 265 27.4 45.1 0.20 2.69 1.30 75 1011.0
20260905025203 14 264 25.7 45.1 0.20 2.69 1.30 76 1011.0
20260905024603 14 262 27.4 45.1 0.20 2.69 1.30 76 1011.0
20260905024403 14 262 17.7 43.5 0.10 2.59 1.19 77 1011.0
20260905024203 14 262 25.7 43.5 0.10 2.59 1.19 76 1010.0
20260905024003 14 260 24.1 43.5 0.10 2.59 1.19 76 1010.0
20260905023803 14 260 29.0 43.5 0.10 2.59 1.19 76 1010.0
20260905023603 14 258 25.7 43.5 0.20 2.49 1.09 76 1010.0
20260905023403 14 259 22.5 35.4 0.20 2.49 1.09 77 1010.0
20260905023203 14 258 19.3 35.4 0.20 2.49 1.09 77 1010.0
20260905022803 14 255 24.1 35.4 0.20 2.49 1.09 77 1010.0
20260905022603 14 255 17.7 35.4 0.20 2.49 1.09 78 1010.0
20260905022403 14 254 24.1 35.4 0.20 2.49 1.09 77 1010.0
20260905022203 14 256 20.9 30.6 0.20 2.49 1.09 77 1010.0
20260905021803 14 256 17.7 32.2 0.20 2.49 1.09 77 1010.0
20260905021603 14 258 17.7 32.2 0.20 2.49 1.09 77 1010.0
20260905021404 14 255 20.9 32.2 0.20 2.49 1.09 77 1010.0
20260905021203 14 256 22.5 37.0 0.20 2.49 1.09 76 1010.0
20260905020603 14 259 14.5 43.5 0.20 2.49 1.09 76 1010.0
20260905020403 14 262 29.0 43.5 0.20 2.49 1.09 75 1010.0
20260905020203 14 264 30.6 43.5 0.20 2.49 1.09 75 1010.0
20260905020003 14 266 17.7 38.6 0.20 2.49 1.09 76 1010.0
20260905015803 14 266 16.1 38.6 0.20 2.49 1.09 75 1010.0
20260905015603 14 266 20.9 35.4 0.20 2.49 1.09 75 1010.0
20260905015403 14 268 20.9 45.1 0.30 2.49 1.09 75 1010.0
20260905015003 14 269 20.9 45.1 0.30 2.49 1.09 74 1010.0
20260905014803 14 270 24.1 45.1 0.30 2.49 1.09 74 1010.0
20260905014603 14 269 38.6 46.7 0.30 2.49 1.09 73 1010.0
20260905014403 14 270 24.1 46.7 0.30 2.49 1.09 74 1010.0
20260905014202 14 270 24.1 46.7 0.30 2.49 1.09 74 1010.0
20260905014004 14 270 20.9 46.7 0.30 2.49 1.09 74 1010.0
20260905013803 14 270 27.4 46.7 0.30 2.49 1.09 74 1010.0
20260905013603 14 271 25.7 38.6 0.10 2.31 0.89 75 1010.0
20260905013202 14 269 24.1 38.6 0.20 2.31 0.89 75 1010.0
20260905013003 14 268 20.9 35.4 0.20 2.31 0.89 75 1010.0
20260905012803 14 267 22.5 35.4 0.71 2.31 0.89 75 1010.0
20260905012604 14 266 24.1 46.7 0.71 2.31 0.89 76 1010.0
20260905012403 14 264 20.9 46.7 0.71 2.31 0.89 76 1010.0
20260905012203 14 264 22.5 46.7 0.71 2.31 0.89 76 1010.0
20260905012003 14 262 22.5 46.7 0.71 2.31 0.89 76 1010.0
20260905011803 15 260 33.8 46.7 0.71 2.31 0.89 76 1010.0
20260905011603 14 257 22.5 37.0 0.71 2.31 0.89 76 1010.0
20260905011403 15 259 22.5 37.0 0.71 2.31 0.89 75 1010.0
20260905011005 15 258 24.1 37.0 0.71 2.31 0.89 76 1010.0
20260905010803 15 257 24.1 35.4 0.79 2.31 0.89 76 1010.0
20260905010603 15 258 24.1 38.6 0.79 2.31 0.89 76 1010.0
20260905010405 14 256 12.9 40.2 0.79 2.31 0.89 77 1010.0
20260905010205 15 256 22.5 40.2 0.79 2.31 0.89 76 1010.0
20260905010003 15 255 12.9 40.2 0.89 2.31 0.89 76 1010.0
20260905005803 15 258 16.1 40.2 0.89 2.31 0.89 76 1010.0
20260905005604 15 258 24.1 40.2 0.89 2.31 0.89 76 1010.0
20260905005203 15 262 24.1 33.8 0.79 2.21 0.79 76 1010.0
20260905005003 15 264 19.3 38.6 0.79 2.21 0.79 77 1010.0
20260905004804 15 261 16.1 38.6 0.79 2.21 0.79 77 1010.0
20260905004603 15 258 24.1 38.6 0.79 2.21 0.79 76 1010.0
20260905004403 15 258 20.9 38.6 0.79 2.21 0.79 76 1010.0
20260905004207 15 259 30.6 38.6 0.79 2.21 0.79 76 1010.0
20260905004003 15 256 25.7 45.1 0.79 2.21 0.79 76 1010.0
20260905003803 15 261 25.7 46.7 0.79 2.21 0.79 76 1010.0
20260905003604 15 264 17.7 46.7 0.79 2.21 0.79 77 1010.0
20260905003403 15 262 24.1 46.7 0.79 2.21 0.79 77 1010.0
20260905003203 15 259 19.3 46.7 0.71 2.11 0.71 77 1010.0
20260905002802 15 254 16.1 43.5 0.20 1.60 0.20 78 1010.0
20260905002603 15 254 20.9 43.5 0.20 1.60 0.20 77 1010.0
20260905002004 15 253 33.8 43.5 0.20 1.60 0.20 77 1010.0
20260905001403 15 251 19.3 45.1 0.20 1.60 0.20 79 1010.0
20260905001204 15 253 22.5 45.1 0.20 1.60 0.20 79 1009.0
20260905001003 15 253 24.1 45.1 0.20 1.60 0.20 79 1009.0
20260905000803 15 253 22.5 45.1 0.10 1.50 0.10 79 1009.0
20260905000603 15 253 24.1 45.1 0.10 1.50 0.10 79 1009.0
20260905000403 15 251 20.9 45.1 0.10 1.50 0.10 79 1009.0
20260905000204 15 249 24.1 45.1 0.10 1.50 0.10 79 1009.0
20260905000003 15 250 16.1 41.8 0.00 1.40 0.00 80 1009.0